Location: Newark
(50.0336°N, 22.0047°E)
Time: 02:37:47
(UTC+00:00)

Envisat - Pass Details

Date: 03 February 2020
Orbit: 764 x 766 km, 98.1° (Epoch: 25 February)

Event Time Altitude Azimuth Distance (km) Brightness Sun altitude
Rises 03:56:18 0° 27° (NNE) 3,244 6.6 -20.6°
Reaches altitude 10° 03:59:27 10° 48° (NE) 2,311 6.1 -20.1°
Maximum altitude 04:02:43 17° 88° (E) 1,866 6.0 -19.6°
Drops below altitude 10° 04:05:58 10° 128° (SE) 2,300 6.3 -19.0°
Sets 04:09:05 0° 148° (SSE) 3,219 6.7 -18.5°
